TimeMST,TemperatureF,Dew PointF,Humidity,Sea Level PressureIn,VisibilityMPH,Wind Direction,Wind SpeedMPH,Gust SpeedMPH,PrecipitationIn,Events,Conditions,WindDirDegrees,DateUTC
12:53 AM,24.1,19.0,81,30.11,10.0,SE,4.6,-,N/A,,Clear,140,2012-11-07 07:53:00
1:53 AM,30.9,23.0,72,30.07,10.0,SE,6.9,-,N/A,,Clear,140,2012-11-07 08:53:00
2:53 AM,33.1,23.0,66,30.04,10.0,SE,8.1,-,N/A,,Partly Cloudy,140,2012-11-07 09:53:00
3:53 AM,34.0,23.0,64,30.01,10.0,SE,9.2,-,N/A,,Clear,140,2012-11-07 10:53:00
4:53 AM,33.1,23.0,66,30.01,10.0,SSE,9.2,-,N/A,,Clear,150,2012-11-07 11:53:00
5:53 AM,35.1,21.9,59,29.99,10.0,SE,10.4,-,N/A,,Clear,140,2012-11-07 12:53:00
6:53 AM,36.0,21.9,57,29.98,10.0,SSE,11.5,-,N/A,,Clear,150,2012-11-07 13:53:00
7:53 AM,39.0,21.9,50,29.97,10.0,SSE,10.4,-,N/A,,Clear,150,2012-11-07 14:53:00
8:53 AM,42.1,23.0,47,29.94,10.0,SSE,12.7,-,N/A,,Clear,150,2012-11-07 15:53:00
9:53 AM,48.0,24.1,39,29.91,10.0,SSE,13.8,21.9,N/A,,Clear,160,2012-11-07 16:53:00
10:53 AM,53.1,26.1,35,29.86,10.0,SSE,10.4,-,N/A,,Clear,160,2012-11-07 17:53:00
11:53 AM,57.0,27.0,32,29.82,10.0,South,10.4,-,N/A,,Clear,190,2012-11-07 18:53:00
12:53 PM,61.0,27.0,27,29.77,10.0,South,13.8,-,N/A,,Clear,170,2012-11-07 19:53:00
1:53 PM,61.0,28.0,29,29.75,10.0,South,10.4,-,N/A,,Clear,170,2012-11-07 20:53:00
2:53 PM,63.0,28.9,28,29.73,10.0,SSE,10.4,-,N/A,,Clear,160,2012-11-07 21:53:00
3:53 PM,60.1,30.0,32,29.73,10.0,SSE,6.9,-,N/A,,Clear,160,2012-11-07 22:53:00
4:53 PM,54.0,30.0,40,29.74,10.0,SSE,5.8,-,N/A,,Clear,150,2012-11-07 23:53:00
5:53 PM,51.1,30.0,44,29.75,10.0,SE,5.8,-,N/A,,Clear,140,2012-11-08 00:53:00
6:53 PM,46.0,30.0,54,29.75,10.0,SSE,3.5,-,N/A,,Clear,150,2012-11-08 01:53:00
7:53 PM,42.1,30.0,62,29.75,10.0,Calm,Calm,-,N/A,,Clear,0,2012-11-08 02:53:00
8:53 PM,39.0,28.9,67,29.75,10.0,Calm,Calm,-,N/A,,Clear,0,2012-11-08 03:53:00
9:53 PM,52.0,34.0,50,29.76,10.0,North,24.2,32.2,N/A,,Clear,350,2012-11-08 04:53:00
10:53 PM,48.9,34.0,56,29.80,10.0,NNW,12.7,-,N/A,,Clear,340,2012-11-08 05:53:00
11:53 PM,42.1,34.0,73,29.83,10.0,NW,8.1,-,N/A,,Clear,310,2012-11-08 06:53:00